Tracking 35275 objects as of 8-Sep-2026
HD Live streaming from Space Station
objects crossing your sky now

STARLINK-37220

Track STARLINK-37220 now!
10-day predictions
STARLINK-37220 is classified as:


NORAD ID: 68398
Int'l Code: 2026-063U
Launch date: March 26, 2026
Source: United States (US)
Launch site: AIR FORCE WESTERN TEST RANGE (AFWTR)
Your satellite tracking list
Your tracking list is empty




NASA's NSSDC Master Catalog

Two Line Element Set (TLE):
1 68398U 26063U   26250.35879326  .00012841  00000-0  39936-3 0  9998
2 68398  97.2844  31.3890 0001389  91.1474 268.9927 15.33447371 25739
Source of the keplerian elements: AFSPC